CAPE
405 506 424 78 7 1 24 69 71 23 48 18 9 16 22 6 0 0 0 42 0 27 173 143 360 652 1004 1137 1187 1273 1276 1555 1506 1506 1423 1420 1519 1539 1678 1680 1585 1530 1409 1324 1398 1478 1462 1400 1357
407 544 189 0 9 31 40 3 60 89 1 39 98 37 8 2 0 0 13 83 131 57 87 293 509 698 934 1014 1259 1300 1203 1381 1234 1643 1553 1485 1386 1546 1514 1486 1440 1355 1248 1298 1400 1412 1510 1487 1429
634 213 10 2 26 78 71 28 48 181 185 122 143 40 12 28 52 64 105 188 139 122 96 372 561 690 770 887 1184 1252 1279 1087 1100 1277 1670 1529 1378 1480 1420 1327 1249 1230 1340 1433 1491 1479 1461 1544 1584
636 544 241 185 75 101 169 190 178 243 206 155 143 82 175 179 192 176 252 92 58 251 359 826 740 764 840 884 1165 1058 1122 1097 1074 1350 1717 1360 1275 1423 1196 1066 1097 1208 1422 1664 1535 1554 1444 1492 1460
728 406 215 178 104 57 106 95 175 261 212 218 115 151 147 236 151 349 187 196 256 276 599 1026 1242 1161 927 1099 1181 1242 1127 1004 1242 1636 1552 1420 1342 1380 1029 1010 1008 1146 1402 1688 1431 1240 1260 995 1057
38 103 173 156 239 143 155 27 122 231 446 365 200 197 158 301 263 158 323 377 296 230 615 1011 1297 1385 1295 1214 1446 1526 1209 972 1283 1561 1466 1373 1126 955 800 963 999 1139 1424 1623 1488 1023 1120 783 650
1 0 31 54 48 206 256 112 330 271 300 357 425 215 240 247 190 228 336 395 294 291 447 882 1284 1402 1639 1557 1667 1606 1349 1205 1373 1438 1300 1135 1017 985 891 939 915 923 1084 1123 1122 858 896 932 819
0 0 22 77 36 15 191 94 114 146 343 376 675 455 410 422 330 331 308 372 196 427 555 699 1126 1256 1493 1440 1521 1486 1546 1403 1255 1204 1076 886 1222 1267 1014 895 1121 890 644 660 855 960 827 878 1092
40 8 5 27 12 0 48 83 223 284 328 398 418 453 697 590 494 535 680 489 726 704 699 917 993 1106 1277 999 1340 1540 1419 993 844 845 731 550 792 1099 1293 1166 1267 789 796 678 608 760 986 1092 1357
18 6 18 1 5 8 90 155 160 225 260 236 378 530 829 800 683 566 725 687 765 731 897 916 902 957 1039 1003 1296 1026 695 455 234 378 386 429 872 667 1107 1309 1164 961 593 903 969 857 1061 1670 1170
22 23 33 20 13 45 7 2 4 55 342 260 484 632 855 879 725 595 569 723 826 704 962 989 1055 1076 913 940 531 599 518 226 257 585 799 873 902 699 637 795 509 932 941 782 1091 1232 1191 1098 1223
1 16 19 20 53 16 10 0 8 0 202 388 292 250 992 782 804 565 671 682 706 660 727 858 1019 977 875 1097 651 219 573 414 454 595 1040 1420 1175 508 775 1129 717 912 1187 1004 1176 1148 983 1179 821
0 7 17 33 44 51 12 3 20 39 382 507 440 302 616 830 736 538 505 531 335 554 671 634 758 761 1051 885 245 567 692 780 828 891 1298 749 1031 805 578 1232 1053 1129 932 1153 963 1351 924 835 1063
0 2 1 26 75 60 19 19 10 118 587 607 546 379 347 228 516 642 437 599 509 660 704 871 804 615 855 675 771 1046 922 1112 1118 1279 1062 859 1048 949 1196 1256 938 926 1247 1439 1211 970 691 635 1006
0 0 0 0 3 70 64 2 2 32 399 573 553 476 440 368 263 275 668 541 428 732 801 988 679 828 1193 752 1383 1306 933 587 299 1138 1248 1019 1178 1131 1116 1210 882 1458 1255 1451 1378 919 936 1022 713
0 0 0 0 0 16 52 25 7 0 161 309 299 372 469 447 309 220 620 664 234 440 1007 1074 1008 1344 1441 826 1395 1065 991 1158 882 847 1239 1057 1258 1437 1088 1242 1439 1150 1130 975 876 650 600 708 179
0 0 0 0 0 0 10 1 0 0 90 121 177 171 276 348 349 317 238 627 508 849 1124 1100 1202 746 861 1094 1316 1186 692 838 854 1137 1160 1630 1599 1479 1158 926 1221 1349 1192 1115 915 639 397 4 0
0 0 0 0 0 1 3 12 0 0 0 92 75 75 97 152 278 348 143 327 385 647 1028 958 1113 1070 750 1006 1151 1157 677 1044 1395 1088 932 775 1405 1447 1140 984 1463 1202 1017 842 517 392 121 0 0
0 0 0 0 15 17 0 5 10 1 0 0 38 7 72 77 121 264 221 317 523 685 745 926 872 1330 1137 1251 1323 1352 1338 1201 1197 909 1065 1194 1353 1594 1376 1126 1062 1316 762 744 307 104 0 0 0
0 0 0 0 25 0 17 5 0 0 0 0 8 15 48 76 66 183 195 221 394 672 760 677 881 1683 1460 1285 1302 1408 1380 1376 1436 1315 1698 1501 1574 1531 1051 852 1063 1023 1132 800 149 3 0 0 51
0 0 0 0 0 16 33 2 0 0 0 0 3 0 25 38 59 140 165 200 254 546 792 780 757 1315 1827 1553 1428 1299 1166 1139 1232 1410 1360 1388 1374 1345 1184 1069 972 1230 977 472 49 0 0 0 49
0 0 0 0 0 0 52 10 9 0 11 6 7 0 5 38 64 105 207 218 220 516 855 898 888 1103 1361 1701 1324 1288 847 909 1010 1299 1463 1435 1519 1439 1465 1281 1211 868 198 144 1 18 6 5 1
0 0 0 0 0 1 0 0 26 60 31 28 1 0 0 0 3 60 252 204 302 507 781 1032 1004 1092 1245 1452 1375 1100 864 777 1094 1258 1234 1696 1709 1246 1419 1225 1231 604 98 118 20 0 0 29 3
0 0 0 0 0 0 0 0 1 62 19 51 60 19 1 0 0 22 128 296 266 667 899 1310 1244 1196 1549 1252 1489 1393 1393 1409 1080 898 976 1318 1294 917 1481 1239 1004 433 17 82 50 39 5 3 24
0 0 0 0 0 0 0 0 0 29 21 54 124 78 103 30 0 0 68 322 367 709 1142 1410 1405 1439 1604 1622 1273 1444 1799 1325 976 1247 1237 1189 1106 668 1005 975 562 394 0 100 74 29 27 10 37
0 0 0 0 0 0 0 0 0 33 50 152 165 22 125 80 29 5 51 200 484 621 1113 1641 1689 1592 1849 1842 1812 1493 1545 1688 1186 1286 1014 776 749 670 787 732 467 339 0 483 212 167 83 61 8
0 0 0 0 0 0 0 0 0 1 42 79 31 19 12 0 229 115 64 138 419 589 1147 1354 2126 1908 1984 2189 2120 1784 1668 1978 2062 1401 1729 834 254 469 698 813 485 305 49 129 338 191 38 151 44
0 0 0 0 0 0 0 0 0 0 23 48 8 14 29 2 128 270 94 140 403 580 993 1409 2158 2121 2155 1896 2295 2180 1914 1744 2043 2214 1301 1577 710 989 791 781 614 418 143 27 359 235 101 55 160
0 0 0 0 0 0 0 0 0 0 48 71 6 7 27 1 49 335 245 232 490 681 942 1369 1977 2272 2380 2322 2054 2447 2395 2208 1893 2193 1867 1348 1342 596 803 890 737 487 367 194 294 271 55 124 40
0 0 0 0 0 0 0 0 0 0 43 84 59 13 5 0 131 348 418 394 709 756 830 1308 2104 2345 2500 2602 2467 2216 2590 2637 2133 1758 2114 1638 1272 1274 952 882 857 621 292 256 381 276 93 54 245
CIN
-150 -83 -26 -67 -62 -108 -35 -40 -80 -29 -60 -94 -119 -62 -90 -99 0 0 0 -7 -1 -16 -1 -11 -1 0 -0 0 -0 -0 0 0 -2 -1 -1 -12 -5 -11 -2 -1 -0 -0 -1 -0 -0 -0 -0 0 -1
-130 -97 -67 -61 -45 -31 -25 -7 -51 -45 -57 -108 -106 -120 -138 -57 0 0 -36 -23 -21 -22 -25 -7 -1 -0 -0 0 -0 -0 0 -0 -11 -0 -5 -6 -13 -9 -11 -8 -6 -10 -6 0 0 0 -0 0 -2
-65 -63 -64 -56 -108 -26 -29 -83 -31 -30 -75 -73 -106 -102 -131 -148 -92 -116 -53 -16 -28 -41 -41 -6 -5 -7 -8 -2 -0 -0 -0 -11 -8 -12 -1 -2 -13 -15 -19 -22 -20 -19 -4 0 0 0 -5 -5 -3
-18 -4 -5 -25 -72 -54 -20 -28 -36 -6 -32 -88 -90 -76 -60 -65 -82 -76 -19 -58 -99 -35 -26 -0 -9 -7 -8 -9 -1 -5 -6 -7 -12 -8 -0 -15 -23 -18 -38 -38 -37 -21 -0 0 0 -0 -15 -14 -15
-28 -27 -51 -16 -49 -56 -67 -52 -10 -17 -33 -42 -98 -55 -53 -33 -103 -37 -55 -51 -43 -40 -28 -2 -0 -3 -15 -7 -3 -2 -4 -14 -7 -0 -3 -16 -23 -32 -49 -43 -36 -21 -7 -0 -11 -35 -40 -54 -47
-170 -150 -27 -73 -9 -8 -40 -74 -92 -70 -71 -42 -94 -80 -38 -21 -46 -54 -26 -20 -49 -70 -41 -10 -1 -0 -3 -6 -0 0 -7 -20 -7 -6 -16 -26 -48 -54 -56 -41 -36 -27 -16 -11 -22 -52 -53 -69 -58
-39 -4 -132 -88 -3 -9 -44 -60 -18 -44 -86 -78 -114 -121 -29 -24 -34 -26 -27 -27 -50 -72 -67 -33 -0 -0 0 -2 -0 0 -9 -16 -12 -21 -37 -49 -48 -47 -49 -42 -40 -40 -40 -40 -37 -57 -60 -60 -65
0 0 -89 -34 -10 -9 -62 -103 -40 -39 -39 -72 -114 -76 -36 -21 -34 -17 -16 -22 -62 -69 -69 -59 -14 -6 -4 -4 -0 -1 -4 -19 -37 -46 -47 -49 -32 -21 -34 -40 -36 -34 -52 -59 -55 -49 -53 -58 -56
-329 -138 -39 -40 -24 -11 -11 -35 -17 -29 -90 -69 -68 -110 -69 -39 -28 -14 -7 -18 -36 -50 -68 -51 -35 -24 -18 -40 -9 -5 -24 -55 -72 -64 -55 -71 -62 -46 -14 -19 -28 -40 -47 -51 -54 -58 -51 -44 -40
-97 -74 -41 -11 -38 -19 -20 -28 -38 -19 -33 -50 -68 -52 -42 -46 -36 -40 -10 -18 -24 -41 -56 -58 -49 -48 -48 -51 -33 -57 -82 -110 -124 -78 -81 -66 -51 -67 -20 -11 -36 -42 -53 -36 -34 -37 -29 -27 -28
-157 -81 -60 -83 -33 -17 -34 -12 -4 -26 -22 -44 -58 -55 -24 -31 -49 -56 -53 -48 -23 -40 -28 -47 -49 -52 -72 -58 -95 -89 -98 -117 -104 -74 -56 -51 -44 -60 -76 -51 -60 -50 -48 -51 -38 -24 -26 -26 -26
-41 -29 -34 -12 -25 -35 -26 0 -30 0 -36 -52 -76 -53 -52 -25 -46 -59 -54 -39 -26 -37 -26 -50 -56 -49 -70 -50 -75 -95 -90 -90 -87 -75 -48 -26 -41 -76 -28 -23 -41 -27 -22 -33 -23 -23 -27 -23 -17
0 -30 -25 -29 -25 -50 -34 -65 -8 -22 -56 -68 -77 -49 -22 -29 -36 -65 -63 -65 -75 -62 -61 -70 -55 -64 -51 -41 -116 -75 -66 -67 -57 -42 -34 -32 -30 -40 -32 -17 -27 -30 -32 -20 -28 -27 -24 -26 -20
0 -24 -1 -12 -43 -57 -58 -38 -6 -33 -54 -67 -74 -58 -41 -28 -19 -35 -80 -77 -92 -86 -81 -56 -52 -83 -53 -63 -50 -45 -41 -25 -27 -27 -27 -40 -34 -37 -30 -16 -23 -10 -16 -14 -25 -27 -22 -29 -20
0 0 0 0 -12 -36 -69 -14 -0 -42 -49 -65 -72 -66 -42 -33 -10 -9 -43 -64 -76 -79 -93 -95 -87 -66 -35 -53 -16 -15 -29 -13 -39 -18 -24 -26 -32 -30 -19 -23 -23 -13 -19 -19 -28 -21 -29 -23 -20
0 0 0 0 0 -26 -65 -82 -17 -8 -66 -67 -68 -67 -48 -40 -38 -20 -32 -49 -95 -115 -98 -91 -67 -41 -35 -56 -19 -17 -25 -20 -19 -34 -24 -27 -27 -32 -31 -20 -15 -15 -19 -32 -28 -33 -31 -34 -74
0 0 0 0 0 -5 -38 -11 0 0 -69 -95 -81 -57 -51 -37 -35 -31 -16 -46 -73 -84 -95 -104 -86 -102 -88 -49 -27 -24 -24 -28 -26 -27 -29 -29 -16 -25 -28 -35 -19 -13 -18 -18 -24 -20 -35 -72 0
0 0 0 0 0 -20 -30 -71 0 0 0 -141 -124 -86 -64 -54 -49 -54 -63 -35 -69 -66 -86 -84 -90 -108 -113 -72 -44 -27 -45 -22 -23 -27 -26 -20 -31 -19 -32 -30 -20 -19 -16 -22 -33 -50 -126 0 0
0 0 0 0 -6 -49 0 -103 -101 -43 0 0 -165 -40 -113 -106 -84 -44 -59 -52 -49 -72 -94 -91 -83 -99 -101 -80 -53 -31 -23 -16 -21 -28 -32 -30 -28 -24 -31 -30 -24 -22 -24 -27 -72 -140 -1 0 0
0 0 0 0 -3 0 -84 -78 0 0 0 0 -254 -172 -159 -181 -162 -97 -95 -91 -74 -96 -116 -125 -99 -37 -80 -87 -59 -28 -22 -13 -21 -19 -21 -27 -27 -28 -44 -32 -24 -29 -16 -41 -128 -23 0 0 -266
0 0 0 0 0 -17 -49 -36 0 0 0 0 -113 0 -153 -211 -238 -192 -167 -156 -133 -115 -130 -144 -126 -62 -36 -54 -38 -28 -20 -21 -17 -15 -20 -28 -32 -40 -37 -32 -36 -30 -39 -86 -126 0 0 0 -217
0 0 0 0 0 0 -25 -19 -98 0 -90 -67 -154 0 -139 -204 -237 -246 -207 -201 -187 -162 -137 -142 -133 -97 -63 -36 -55 -43 -67 -48 -47 -23 -28 -33 -40 -42 -32 -21 -36 -56 -158 -157 -35 -275 -95 -209 -42
0 0 0 0 0 -1 0 0 -21 -80 -56 -108 -4 0 0 0 -29 -231 -233 -233 -210 -211 -191 -172 -144 -120 -92 -57 -57 -56 -81 -92 -30 -18 -17 -28 -40 -40 -33 -56 -49 -109 -204 -187 -231 0 0 -207 -78
0 0 0 0 0 -2 0 0 -23 -29 -62 -45 -50 -76 -19 0 0 -184 -222 -233 -234 -228 -212 -179 -164 -141 -109 -108 -67 -63 -59 -46 -45 -50 -36 -31 -41 -76 -45 -64 -89 -138 -276 -247 -268 -275 -105 -97 -203
0 0 0 0 0 0 0 0 0 -42 -42 -49 -56 -53 -44 -120 0 0 -228 -251 -245 -250 -248 -224 -191 -156 -125 -105 -114 -91 -43 -64 -81 -48 -58 -52 -67 -124 -110 -124 -177 -194 0 -289 -300 -328 -336 -331 -274
0 0 0 0 0 0 0 0 0 -88 -29 -54 -51 -44 -33 -36 -123 -143 -212 -236 -288 -264 -271 -251 -231 -176 -132 -108 -98 -104 -91 -61 -86 -51 -86 -108 -117 -134 -134 -161 -215 -241 0 -220 -279 -280 -280 -297 -350
0 0 0 0 0 0 0 0 0 -14 -35 -45 -61 -61 -33 0 -48 -127 -200 -258 -293 -296 -295 -289 -239 -198 -147 -107 -92 -94 -107 -61 -45 -66 -43 -107 -178 -166 -153 -183 -232 -263 -344 -348 -256 -286 -338 -257 -269
0 0 0 0 0 0 0 0 0 0 -38 -86 -62 -55 -69 -105 -90 -99 -154 -223 -324 -336 -299 -293 -266 -235 -177 -142 -93 -97 -112 -117 -60 -32 -88 -70 -141 -136 -182 -201 -240 -265 -334 -393 -255 -271 -284 -295 -227
0 0 0 0 0 0 0 0 0 0 -57 -78 -86 -103 -95 -8 -124 -84 -119 -183 -285 -342 -321 -296 -278 -242 -187 -160 -151 -106 -111 -106 -95 -60 -83 -109 -91 -196 -193 -200 -226 -270 -301 -343 -295 -263 -311 -237 -222
0 0 0 0 0 0 0 0 0 0 -80 -35 -60 -103 -77 -4 -101 -86 -112 -154 -268 -300 -327 -312 -295 -273 -231 -188 -154 -151 -112 -90 -108 -136 -97 -119 -131 -139 -186 -211 -243 -268 -313 -318 -269 -261 -294 -269 -153
Wind_Speed
24 26 20 10 12 12 14 8 14 16 12 9 19 14 13 10 16 21 34 36 38 38 38 37 36 35 32 30 25 19 18 19 21 24 24 24 26 25 25 25 24 24 25 25 20 11 10 15 17
23 23 21 8 8 3 12 11 13 17 22 24 21 21 12 12 20 31 34 37 38 38 37 37 35 35 32 27 21 24 24 23 22 25 24 25 25 24 24 24 23 24 24 24 16 12 7 11 10
22 16 20 11 15 11 15 22 4 22 26 20 18 21 16 21 28 33 36 39 38 37 37 36 35 32 28 27 27 27 25 24 26 24 24 24 24 24 26 25 24 24 24 23 16 10 8 15 15
20 17 11 17 21 15 22 23 23 26 22 22 22 20 24 27 28 34 39 37 36 35 35 34 33 31 29 29 29 28 26 26 24 22 22 23 23 24 24 24 23 22 21 19 15 22 14 17 20
16 15 10 14 21 24 19 20 20 25 22 23 25 24 23 24 33 37 37 33 33 32 33 32 32 31 30 31 30 29 27 25 24 23 22 23 23 23 23 23 22 20 18 16 16 20 21 19 19
12 12 11 10 11 24 20 18 19 20 25 26 26 25 22 28 31 34 31 30 31 32 31 31 31 30 30 30 29 28 27 26 24 24 24 23 23 22 22 22 21 18 15 15 17 20 21 21 21
9 11 8 14 21 20 20 23 22 22 23 18 25 24 24 26 30 32 30 29 28 28 29 30 31 30 29 30 29 28 27 26 25 25 23 22 21 20 19 18 17 17 16 15 16 18 21 17 15
21 9 12 11 14 14 23 20 20 22 20 25 28 17 23 26 28 29 26 27 27 26 27 30 30 30 31 30 29 28 28 26 25 23 21 19 18 17 16 16 15 14 14 13 13 13 14 11 12
17 6 16 10 12 16 18 21 22 20 25 23 14 22 26 28 27 26 25 24 24 25 26 29 31 31 31 30 29 28 27 25 24 22 20 19 17 16 16 15 14 14 14 13 12 12 11 10 9
14 18 21 16 13 17 20 22 21 18 19 17 20 21 26 25 24 25 22 22 22 24 28 30 31 31 30 29 28 27 26 24 23 22 20 19 16 16 15 15 16 15 14 13 11 11 11 8 7
21 19 15 14 16 17 16 15 16 17 16 20 20 24 28 26 23 23 22 23 25 27 29 31 30 29 29 28 27 26 25 24 23 22 21 18 17 17 18 14 15 16 14 13 11 11 10 9 9
20 22 11 11 13 15 13 14 14 17 19 22 21 23 28 26 24 25 23 25 29 28 30 30 29 29 29 28 25 25 25 24 23 23 21 20 18 18 18 16 14 14 14 12 11 11 9 12 8
25 20 19 11 9 16 14 11 16 17 23 22 20 22 25 26 26 26 24 27 29 27 28 30 30 28 28 27 25 25 24 23 22 22 21 18 18 18 16 15 14 14 15 14 15 16 12 7 8
30 30 27 16 14 14 12 15 12 20 22 22 20 21 23 23 27 28 25 28 29 28 28 30 30 28 26 27 24 22 22 22 21 22 20 17 16 16 16 13 13 12 13 15 17 13 8 11 11
32 29 27 24 5 9 13 11 14 21 21 20 19 20 24 26 29 26 25 28 30 27 29 30 30 29 26 27 23 22 23 22 18 20 19 17 15 14 13 13 12 10 13 15 17 18 9 8 9
31 30 28 26 20 12 5 14 20 18 18 17 18 20 24 28 30 29 25 27 30 28 27 27 28 28 24 25 23 22 23 21 21 16 18 16 16 13 13 12 12 14 15 16 17 17 11 20 15
29 29 29 26 25 12 5 7 11 14 16 16 18 21 24 29 31 31 30 26 26 20 24 26 26 25 23 22 22 21 23 22 20 16 14 15 15 12 12 12 11 11 13 15 16 15 16 20 20
20 24 27 28 11 2 5 12 12 9 5 14 16 22 24 27 32 30 30 26 24 21 23 25 21 21 22 20 18 19 22 24 21 14 15 16 11 11 10 10 12 11 13 15 15 15 16 19 15
27 26 24 25 9 5 4 15 16 14 15 17 18 23 24 28 28 28 28 26 22 21 22 22 21 19 19 18 17 18 22 23 21 20 13 13 12 9 8 8 9 11 13 12 14 16 18 17 16
29 32 33 32 9 4 7 12 20 20 24 21 22 24 25 25 27 26 27 25 24 22 21 21 20 14 17 16 15 16 17 19 20 16 11 12 10 8 7 8 8 8 10 12 14 17 17 17 16
21 30 33 14 22 10 5 18 21 33 8 24 26 24 25 25 25 24 26 25 23 22 21 21 20 15 13 13 13 9 11 19 22 15 10 9 8 6 8 9 11 11 12 13 14 16 17 18 18
19 33 37 36 11 16 9 34 38 26 19 29 30 25 23 24 24 22 25 24 24 22 21 20 19 17 14 12 12 8 9 13 18 17 10 9 8 8 8 10 11 12 13 13 14 15 16 17 18
38 23 26 42 41 13 15 36 14 16 28 28 24 24 23 21 21 23 24 24 22 19 19 19 19 17 15 12 11 10 8 13 15 5 7 7 9 9 11 14 13 13 14 14 15 16 15 16 17
42 31 39 42 39 35 13 14 31 14 32 26 20 17 21 21 20 20 22 20 19 16 17 15 17 17 14 14 11 11 10 9 11 4 3 9 13 13 14 13 13 12 13 14 14 14 14 15 16
20 24 30 40 40 39 18 18 16 28 16 21 23 18 15 15 20 19 20 20 19 16 15 15 17 16 14 14 14 13 11 12 10 3 8 12 14 14 14 15 16 14 13 13 12 13 13 13 15
21 20 28 33 37 37 26 28 22 16 16 15 23 15 20 15 26 24 25 22 21 19 18 17 18 15 15 14 13 13 12 11 10 9 11 14 15 17 16 15 15 15 13 12 11 11 11 12 11
17 32 21 37 40 40 39 37 40 17 18 15 19 18 18 15 21 27 26 23 21 21 21 21 18 17 17 15 14 14 13 12 13 15 15 19 19 19 20 19 16 14 12 11 11 10 10 10 9
24 23 20 26 37 46 44 40 38 23 18 16 17 17 17 11 21 26 24 23 21 22 20 21 20 20 18 19 16 17 17 17 17 18 25 22 21 15 20 17 15 13 11 10 8 7 7 5 5
24 24 27 23 28 35 41 49 30 29 11 15 20 19 15 25 21 25 25 21 21 19 18 20 21 20 20 20 21 21 22 22 22 25 26 24 21 18 16 16 13 12 10 9 8 6 5 3 2
26 27 28 31 29 36 38 52 34 36 22 21 25 20 14 9 23 23 23 21 18 20 20 21 20 21 22 22 23 25 26 26 28 30 27 23 22 17 15 15 14 13 11 8 7 6 4 4 2
Wind_Direction
115 117 61 290 226 202 196 334 192 45 1 347 42 38 31 344 55 80 113 124 120 123 118 114 112 108 102 99 92 85 79 74 72 75 71 67 71 69 67 68 60 61 64 62 28 340 165 140 131
120 112 125 269 288 167 185 38 181 60 72 69 58 53 21 25 61 98 110 124 122 120 121 124 117 114 106 97 90 92 89 82 75 80 74 72 72 68 66 64 57 66 67 69 4 340 290 170 182
122 86 81 196 158 199 177 88 78 82 86 62 48 48 35 75 90 109 116 123 119 120 125 123 120 111 102 100 101 100 94 88 91 82 75 74 72 72 79 71 73 77 79 77 0 315 284 351 351
140 273 111 174 123 176 129 108 89 98 63 63 72 50 68 87 96 111 121 118 115 114 120 120 116 113 109 108 111 109 102 98 91 81 76 73 73 77 72 83 98 101 104 113 137 37 344 3 23
200 246 158 347 98 128 57 59 50 71 63 62 76 79 73 84 104 116 119 112 112 113 118 118 118 117 115 118 120 117 113 102 98 90 85 82 82 76 78 92 104 113 122 128 128 103 49 18 22
43 141 250 263 22 98 65 73 94 71 78 77 78 83 81 100 107 118 113 108 111 114 115 117 120 120 120 122 124 124 120 118 111 107 105 103 99 95 97 99 103 117 132 127 112 98 91 80 65
276 273 239 196 114 79 79 78 86 87 80 71 90 87 96 105 113 119 117 115 112 113 115 121 126 125 123 127 126 129 130 132 133 130 132 132 122 122 122 125 120 119 127 127 125 103 81 112 123
267 229 261 220 199 27 100 80 96 108 78 97 98 77 112 115 116 121 114 118 114 112 118 126 130 132 134 131 133 136 141 143 141 143 146 149 148 150 144 136 133 135 144 148 149 146 136 148 137
151 17 149 212 203 67 63 68 83 89 99 104 91 106 119 121 117 117 116 113 112 116 120 130 136 138 138 136 142 141 143 145 149 152 154 158 156 160 160 162 154 149 150 153 152 148 153 155 175
119 171 145 106 134 97 84 89 90 97 94 82 93 104 118 119 121 121 119 121 121 121 127 135 138 140 139 141 145 149 153 154 155 154 157 164 174 164 172 153 143 148 150 158 160 155 165 181 192
174 185 98 121 153 125 93 84 87 94 105 110 108 121 129 126 125 124 124 128 129 131 134 139 137 140 143 143 148 157 160 160 163 162 161 161 162 159 145 168 151 139 148 147 156 155 158 148 141
172 204 175 41 111 112 73 89 96 111 119 118 113 120 134 134 130 132 127 130 136 137 140 137 139 141 147 144 149 154 158 163 163 165 158 145 138 149 147 158 152 134 142 142 143 144 147 118 137
205 195 203 171 141 135 99 96 122 111 111 114 111 126 133 140 141 139 134 136 140 134 138 144 146 144 147 151 155 156 162 168 166 163 156 148 122 129 159 142 133 130 112 110 91 78 105 141 153
233 251 249 193 150 131 88 118 91 111 114 115 118 130 138 143 146 148 140 143 143 144 142 148 151 150 145 156 152 164 165 160 158 157 153 129 108 106 105 143 170 152 108 71 54 80 146 112 112
242 243 239 212 337 108 73 305 109 120 117 119 120 129 146 151 156 148 140 146 150 145 146 150 153 154 154 161 159 169 168 174 152 144 148 136 122 99 99 107 127 145 92 56 41 31 115 174 220
231 236 230 228 164 131 62 151 161 123 120 121 126 135 149 158 162 157 143 149 154 151 147 147 152 154 151 159 160 166 174 163 169 114 141 134 133 99 95 107 114 64 53 38 34 31 77 13 42
210 212 219 210 193 132 353 96 133 132 127 127 131 142 152 161 167 164 160 149 149 137 144 148 152 155 154 155 160 162 176 183 174 139 110 123 138 111 96 110 114 67 52 34 32 41 34 9 10
181 193 207 210 146 162 104 133 122 122 119 141 139 148 156 163 172 164 164 156 152 147 147 153 151 154 155 151 148 156 171 191 185 135 147 159 130 120 103 89 51 53 35 27 31 42 29 17 43
196 196 196 206 157 254 130 159 159 152 156 159 151 154 158 166 168 166 164 162 156 156 157 159 157 155 154 152 148 152 165 180 177 180 150 156 138 113 105 75 54 55 40 52 47 30 19 24 38
200 210 218 252 178 188 188 176 183 194 184 173 164 159 162 163 165 167 168 167 167 167 167 166 164 153 157 155 150 149 154 167 176 162 139 133 122 103 70 63 64 88 68 65 47 26 28 23 36
208 203 209 189 233 287 245 260 203 207 187 177 175 167 168 166 167 167 171 172 170 172 173 172 170 163 158 154 151 138 144 175 191 166 138 127 126 96 70 68 72 69 84 81 55 47 35 21 15
232 200 214 222 275 198 220 215 211 185 171 185 185 174 172 171 168 168 172 173 175 175 174 174 173 171 166 160 158 153 154 159 172 174 145 144 122 101 86 106 99 77 69 72 65 57 47 38 24
208 258 207 229 246 280 261 260 187 186 186 191 179 183 178 175 172 172 174 177 177 177 177 178 176 174 174 174 175 172 165 167 166 112 125 119 122 112 114 120 99 91 74 77 78 70 59 39 30
224 257 256 255 261 263 238 211 268 207 191 192 191 193 185 182 180 181 178 177 179 180 182 184 184 182 180 179 182 180 173 160 163 142 77 127 131 126 128 113 107 97 94 100 85 76 69 61 36
200 252 255 258 257 262 260 237 256 203 232 203 201 194 200 199 188 184 181 179 181 182 182 181 184 191 187 185 182 184 179 172 163 137 136 132 131 130 124 120 120 115 102 106 89 82 79 72 53
211 225 247 254 257 265 269 259 209 216 199 196 191 212 197 210 189 185 181 182 181 179 177 178 180 186 190 192 191 186 188 178 172 157 146 144 145 146 138 132 131 127 116 108 95 94 83 97 85
228 208 229 264 264 267 264 269 267 259 224 236 202 201 195 202 198 188 183 182 181 180 179 176 175 179 183 185 189 191 190 186 171 167 152 157 154 153 153 149 142 134 126 124 115 106 114 108 76
228 261 235 239 258 260 263 262 264 276 248 236 208 203 225 218 203 193 187 183 183 181 180 178 176 177 176 178 180 183 184 182 176 168 173 164 162 145 160 157 152 144 141 138 129 122 121 104 87
242 227 244 262 248 263 265 260 267 275 248 209 201 205 209 199 202 191 189 187 185 183 186 181 179 177 177 177 177 177 178 178 177 177 176 174 167 161 157 161 161 161 155 156 155 152 143 150 101
235 247 246 252 261 264 267 263 259 264 278 206 204 208 209 223 190 196 194 189 187 185 183 182 180 179 179 178 177 179 178 178 180 184 181 177 178 172 172 171 172 176 177 172 179 187 184 195 206